| time (UTC) | temp F | wind direction | speed MPH | gust MPH | rain 1hr in | rain 24hr in | rain mn in | humidity % | barometer mb |
| 20260506201605 | 69 | 281 | 2.0 | 5.0 | 0.00 | 0.00 | 0.00 | 39 | 1018.1 |
| 20260506193106 | 68 | 111 | 0.0 | 4.0 | 0.00 | 0.00 | 0.00 | 37 | 1018.8 |
| 20260506184601 | 67 | 252 | 0.0 | 6.0 | 0.00 | 0.00 | 0.00 | 42 | 1019.3 |
| 20260506183102 | 66 | 44 | 3.0 | 5.0 | 0.00 | 0.00 | 0.00 | 39 | 1019.3 |
| 20260506181602 | 66 | 212 | 0.0 | 7.0 | 0.00 | 0.00 | 0.00 | 36 | 1019.5 |
| 20260506173104 | 64 | 127 | 2.0 | 5.0 | 0.00 | 0.00 | 0.00 | 36 | 1019.7 |
| 20260506171602 | 63 | 121 | 0.0 | 4.0 | 0.00 | 0.00 | 0.00 | 42 | 1019.7 |
| 20260506164603 | 61 | 108 | 0.0 | 5.0 | 0.00 | 0.00 | 0.00 | 43 | 1019.9 |
| 20260506163104 | 61 | 13 | 1.0 | 4.0 | 0.00 | 0.00 | 0.00 | 39 | 1020.0 |
| 20260506161602 | 61 | 58 | 0.0 | 7.0 | 0.00 | 0.00 | 0.00 | 42 | 1020.0 |
| 20260506154604 | 60 | 38 | 0.0 | 4.0 | 0.00 | 0.00 | 0.00 | 42 | 1019.8 |
| 20260506153102 | 59 | 132 | 2.0 | 5.0 | 0.00 | 0.00 | 0.00 | 47 | 1019.8 |
| 20260506151603 | 59 | 106 | 3.0 | 6.0 | 0.00 | 0.00 | 0.00 | 46 | 1019.7 |
| 20260506144603 | 58 | 118 | 0.0 | 1.0 | 0.00 | 0.00 | 0.00 | 57 | 1019.6 |
| 20260506143108 | 54 | 43 | 0.0 | 1.0 | 0.00 | 0.00 | 0.00 | 60 | 1019.4 |
| 20260506141604 | 52 | 345 | 0.0 | 1.0 | 0.00 | 0.00 | 0.00 | 63 | 1019.3 |
| 20260506134604 | 46 | 345 | 0.0 | 4.0 | 0.00 | 0.00 | 0.00 | 76 | 1018.8 |
| 20260506133102 | 45 | 19 | 2.0 | 4.0 | 0.00 | 0.00 | 0.00 | 77 | 1018.6 |
| 20260506124601 | 44 | 288 | 0.0 | 1.0 | 0.00 | 0.00 | 0.00 | 75 | 1017.6 |
| 20260506121602 | 48 | 354 | 3.0 | 5.0 | 0.00 | 0.00 | 0.00 | 68 | 1017.5 |
| 20260506120104 | 47 | 335 | 1.0 | 4.0 | 0.00 | 0.00 | 0.00 | 71 | 1017.4 |
| 20260506114602 | 46 | 333 | 1.0 | 4.0 | 0.00 | 0.00 | 0.00 | 74 | 1017.4 |
| 20260506113101 | 44 | 325 | 0.0 | 2.0 | 0.00 | 0.00 | 0.00 | 76 | 1017.5 |
| 20260506111604 | 43 | 336 | 1.0 | 3.0 | 0.00 | 0.00 | 0.00 | 78 | 1017.4 |
| 20260506110107 | 45 | 289 | 0.0 | 1.0 | 0.00 | 0.00 | 0.00 | 73 | 1017.3 |
| 20260506104604 | 43 | 333 | 0.0 | 1.0 | 0.00 | 0.00 | 0.00 | 74 | 1017.0 |
| 20260506103103 | 44 | 354 | 0.0 | 0.0 | 0.00 | 0.00 | 0.00 | 73 | 1016.7 |
| 20260506101601 | 45 | 334 | 0.0 | 1.0 | 0.00 | 0.00 | 0.00 | 70 | 1016.5 |
| 20260506094604 | 49 | 308 | 0.0 | 2.0 | 0.00 | 0.00 | 0.00 | 61 | 1016.1 |
| 20260506093102 | 49 | 290 | 0.0 | 2.0 | 0.00 | 0.00 | 0.00 | 61 | 1016.1 |
| 20260506091605 | 49 | 340 | 0.0 | 2.0 | 0.00 | 0.00 | 0.00 | 59 | 1016.0 |
| 20260506084602 | 50 | 326 | 0.0 | 4.0 | 0.00 | 0.00 | 0.00 | 57 | 1015.9 |
| 20260506083102 | 50 | 335 | 2.0 | 5.0 | 0.00 | 0.00 | 0.00 | 57 | 1015.8 |
| 20260506081602 | 49 | 332 | 2.0 | 2.0 | 0.00 | 0.00 | 0.00 | 59 | 1015.8 |
| 20260506080105 | 50 | 348 | 0.0 | 3.0 | 0.00 | 0.00 | 0.00 | 58 | 1015.6 |
| 20260506073102 | 49 | 332 | 1.0 | 6.0 | 0.00 | 0.00 | 0.00 | 60 | 1015.5 |
| 20260506061602 | 53 | 8 | 1.0 | 4.0 | 0.00 | 0.00 | 0.00 | 58 | 1014.7 |
| 20260506060104 | 53 | 341 | 1.0 | 5.0 | 0.00 | 0.00 | 0.00 | 60 | 1014.4 |
| 20260506050107 | 56 | 345 | 0.0 | 4.0 | 0.00 | 0.00 | 0.00 | 56 | 1013.8 |
| 20260506043102 | 57 | 9 | 2.0 | 5.0 | 0.00 | 0.00 | 0.00 | 54 | 1013.5 |
| 20260506041602 | 57 | 308 | 0.0 | 4.0 | 0.00 | 0.00 | 0.00 | 54 | 1013.3 |
| 20260506034601 | 58 | 294 | 4.0 | 5.0 | 0.00 | 0.00 | 0.00 | 52 | 1012.8 |
| 20260506033105 | 60 | 316 | 0.0 | 4.0 | 0.00 | 0.00 | 0.00 | 49 | 1012.6 |
| 20260506031602 | 65 | 286 | 0.0 | 13.0 | 0.00 | 0.00 | 0.00 | 42 | 1012.3 |
| 20260506024605 | 67 | 353 | 2.0 | 7.0 | 0.00 | 0.00 | 0.00 | 39 | 1011.9 |
| 20260506023105 | 68 | 39 | 0.0 | 9.0 | 0.00 | 0.00 | 0.00 | 38 | 1011.7 |
| 20260506021606 | 70 | 52 | 7.0 | 11.0 | 0.00 | 0.00 | 0.00 | 35 | 1011.4 |
| 20260506014602 | 71 | 27 | 7.0 | 21.0 | 0.00 | 0.00 | 0.00 | 32 | 1011.0 |
| 20260506013103 | 72 | 20 | 9.0 | 18.0 | 0.00 | 0.00 | 0.00 | 31 | 1010.9 |
| 20260506011601 | 73 | 18 | 6.0 | 17.0 | 0.00 | 0.00 | 0.00 | 30 | 1010.8 |
| 20260506010103 | 73 | 13 | 11.0 | 16.0 | 0.00 | 0.00 | 0.00 | 31 | 1010.7 |
| 20260506004602 | 74 | 41 | 6.0 | 14.0 | 0.00 | 0.00 | 0.00 | 30 | 1010.7 |
| 20260506003102 | 74 | 54 | 9.0 | 14.0 | 0.00 | 0.00 | 0.00 | 32 | 1010.6 |
| 20260505234602 | 75 | 44 | 11.0 | 17.0 | 0.00 | 0.00 | 0.00 | 30 | 1010.3 |
| 20260505233102 | 75 | 33 | 13.0 | 16.0 | 0.00 | 0.00 | 0.00 | 29 | 1010.3 |
| 20260505231603 | 76 | 62 | 9.0 | 17.0 | 0.00 | 0.00 | 0.00 | 29 | 1010.3 |
| 20260505224602 | 77 | 28 | 7.0 | 11.0 | 0.00 | 0.00 | 0.00 | 30 | 1010.4 |
| 20260505223104 | 76 | 5 | 5.0 | 11.0 | 0.00 | 0.00 | 0.00 | 27 | 1010.4 |
| 20260505221602 | 76 | 12 | 5.0 | 13.0 | 0.00 | 0.00 | 0.00 | 29 | 1010.7 |
| 20260505220107 | 75 | 53 | 6.0 | 12.0 | 0.00 | 0.00 | 0.00 | 28 | 1010.8 |
| 20260505214602 | 76 | 27 | 12.0 | 16.0 | 0.00 | 0.00 | 0.00 | 28 | 1010.7 |
| 20260505213106 | 76 | 345 | 8.0 | 16.0 | 0.00 | 0.00 | 0.00 | 29 | 1010.7 |
| 20260505211604 | 77 | 25 | 3.0 | 7.0 | 0.00 | 0.00 | 0.00 | 26 | 1010.8 |
| 20260505210103 | 76 | 49 | 1.0 | 13.0 | 0.00 | 0.00 | 0.00 | 24 | 1010.9 |
| 20260505204603 | 75 | 339 | 0.0 | 9.0 | 0.00 | 0.00 | 0.00 | 27 | 1011.0 |
| 20260505203103 | 75 | 21 | 4.0 | 7.0 | 0.00 | 0.00 | 0.00 | 26 | 1011.2 |